KLEMETTI Weather Reports


Display with metric or nautical units.
time (UTC)temp
F
wind
direction
speed
MPH
gust
MPH
rain 1hr
in
rain 24hr
in
rain mn
in
humidity
%
barometer
mb
20260506122724 47 241 17.0 25.0 0.00 0.00 0.00 47 1011.9
20260506120725 47 247 16.0 29.0 0.00 0.00 0.00 48 1011.8
20260506114725 46 254 17.0 24.0 0.00 0.00 0.00 46 1011.6
20260506112725 46 250 18.0 27.0 0.00 0.00 0.00 51 1011.6
20260506110724 45 253 16.0 27.0 0.00 0.00 0.00 53 1011.4
20260506104725 44 253 18.0 26.0 0.00 0.00 0.00 53 1011.2
20260506102726 43 259 17.0 28.0 0.00 0.00 0.00 54 1011.0
20260506100727 43 262 20.0 29.0 0.00 0.00 0.00 56 1010.9
20260506094727 43 263 19.0 27.0 0.00 0.00 0.00 57 1010.6
20260506092726 43 260 16.0 25.0 0.00 0.00 0.00 58 1010.4
20260506090726 43 251 17.0 24.0 0.00 0.00 0.00 59 1010.3
20260506084727 43 249 17.0 26.0 0.00 0.00 0.00 58 1010.1
20260506082727 43 260 17.0 25.0 0.00 0.00 0.00 59 1009.9
20260506080726 42 259 16.0 25.0 0.00 0.00 0.00 59 1009.7
20260506072727 41 258 16.0 24.0 0.00 0.00 0.00 61 1009.3
20260506070726 42 250 16.0 24.0 0.00 0.00 0.00 60 1009.1
20260506060725 40 270 15.0 25.0 0.00 0.00 0.00 64 1008.7
20260506050726 39 270 14.0 24.0 0.00 0.00 0.00 66 1008.2
20260506044726 39 272 16.0 25.0 0.00 0.00 0.00 65 1008.0
20260506042725 39 273 13.0 24.0 0.00 0.00 0.00 64 1007.8
20260506040725 39 279 14.0 28.0 0.00 0.00 0.00 64 1007.6
20260506034726 39 277 12.0 23.0 0.00 0.00 0.00 66 1007.3
20260506032725 39 280 14.0 23.0 0.00 0.00 0.00 65 1007.2
20260506030725 39 274 14.0 22.0 0.00 0.00 0.00 66 1007.1
20260506024725 39 276 12.0 25.0 0.00 0.00 0.00 65 1007.0
20260506022725 39 277 13.0 21.0 0.00 0.00 0.00 64 1006.8
20260506020725 39 275 13.0 26.0 0.00 0.00 0.00 63 1006.8
20260506014725 39 280 10.0 19.0 0.00 0.00 0.00 64 1006.6
20260506012725 39 280 13.0 22.0 0.00 0.00 0.00 60 1006.5
20260506010725 40 280 12.0 25.0 0.00 0.00 0.00 62 1006.3
20260506004724 40 281 12.0 19.0 0.00 0.00 0.00 61 1006.1
20260506002725 40 283 11.0 20.0 0.00 0.00 0.00 61 1006.0
20260506000725 40 290 11.0 18.0 0.00 0.00 0.00 59 1005.8
20260505234724 41 291 13.0 23.0 0.00 0.00 0.00 59 1005.6
20260505232725 41 278 13.0 20.0 0.00 0.00 0.00 66 1005.5
20260505230725 41 277 10.0 16.0 0.00 0.00 0.00 67 1005.4
20260505224724 41 272 9.0 17.0 0.00 0.00 0.00 67 1005.4
20260505222724 41 281 8.0 14.0 0.00 0.00 0.00 62 1005.3
20260505220725 42 287 9.0 15.0 0.00 0.00 0.00 57 1005.2
20260505214724 42 283 8.0 13.0 0.00 0.00 0.00 58 1005.1
20260505212724 42 284 6.0 12.0 0.00 0.00 0.00 58 1004.9
20260505210723 42 285 10.0 15.0 0.00 0.00 0.00 55 1004.8
20260505204724 43 284 9.0 16.0 0.00 0.00 0.00 57 1004.6
20260505202725 43 274 10.0 17.0 0.00 0.00 0.00 63 1004.4
20260505200723 43 263 12.0 20.0 0.00 0.00 0.00 61 1004.3
20260505194723 43 250 17.0 25.0 0.00 0.00 0.00 56 1004.2
20260505192724 44 252 14.0 24.0 0.00 0.00 0.00 53 1004.1
20260505190723 44 247 13.0 20.0 0.00 0.00 0.00 52 1004.0
20260505184723 44 248 13.0 19.0 0.00 0.05 0.00 55 1004.0
20260505182723 44 247 13.0 21.0 0.00 0.05 0.00 55 1003.8
20260505180723 44 250 12.0 18.0 0.00 0.05 0.00 55 1003.8
20260505174723 44 241 12.0 19.0 0.00 0.06 0.00 54 1003.6
20260505172722 45 245 14.0 22.0 0.00 0.06 0.00 54 1003.7
20260505170722 45 250 16.0 22.0 0.00 0.06 0.00 52 1003.6
20260505164723 46 246 17.0 23.0 0.00 0.06 0.00 48 1003.6
20260505162723 47 247 14.0 21.0 0.00 0.06 0.00 47 1003.5
20260505160723 47 257 15.0 26.0 0.00 0.06 0.00 51 1003.5
20260505152722 47 252 17.0 25.0 0.00 0.06 0.00 51 1003.4
20260505150723 48 255 23.0 31.0 0.00 0.06 0.00 42 1003.3
20260505124721 48 259 14.0 21.0 0.00 0.06 0.00 43 1002.5